Regional Weather Roundup
Issued by NWS

Home | Current Version | Previous Version | Graphics & Text | Print | Product List | Glossary Off
Versions: 1 2 3 4 5 6 7 8 9 10 11 12 13 14 15 16 17 18 19 20 21 22 23 24 25 26 27 28 29 30 31 32 33 34 35 36 37 38 39 40 41 42 43 44 45 46 47 48 49 50

000
ASUS43 KMKX 170900
RWRWI

WISCONSIN REGIONAL WEATHER ROUNDUP
NATIONAL WEATHER SERVICE MILWAUKEE/SULLIVAN WI
400 AM CDT WED SEP 17 2014

NOTE: "FAIR" INDICATES FEW OR NO CLOUDS BELOW 12,000 FEET WITH NO
SIGNIFICANT WEATHER AND/OR OBSTRUCTIONS TO VISIBILITY.

WIZ001-002-006>008-014>016-023>028-171000-
NORTHWEST WISCONSIN

CITY           SKY/WX    TMP DP  RH WIND       PRES   REMARKS
SUPERIOR ARPT  PTCLDY    40  39  97 CALM      29.94F
ASHLAND        CLEAR     44  42  93 SW5       29.95S
HAYWARD        CLEAR     37  36  96 CALM      29.97F
SIREN          MOCLDY    43  41  93 CALM      29.96F
RICE LAKE      FOG       40  40  97 CALM      30.00F VSB 1/4
LADYSMITH      CLEAR     40  39  95 CALM      30.00F
EAU CLAIRE     MOCLDY    42  41  96 CALM      29.98F
MENOMONIE      CLOUDY    45  45  98 CALM      29.99F
NEW RICHMOND   CLOUDY    49  45  85 SE3       29.97F
OSCEOLA        CLOUDY    50  47  92 CALM      29.99F
$$

WIZ003>005-009-010-017-018-171000-
NORTH CENTRAL WISCONSIN

CITY           SKY/WX    TMP DP  RH WIND       PRES   REMARKS
WOODRUFF       CLEAR     39  37  93 CALM      29.98S FOG
RHINELANDER    CLEAR     41  40  96 W3        29.99F
EAGLE RIVER    PTCLDY    40  40 100 CALM      29.96F
LAND O LAKES   MOCLDY    46  43  90 CALM      29.97S
PHILLIPS       CLEAR     42  40  93 SW3       29.98F
TOMAHAWK       CLEAR     35  34  96 CALM      30.00F
MEDFORD        CLEAR     41  40  97 S3        30.00F
MERRILL        MOCLDY    35  35  99 CALM      30.00F
$$

WIZ029-030-035-036-043>047-171000-
CENTRAL WISCONSIN

CITY           SKY/WX    TMP DP  RH WIND       PRES   REMARKS
WAUSAU         CLEAR     42  41  96 E5        30.00F
MOSINEE        CLEAR     41  41 100 CALM      30.02F
MARSHFIELD     CLEAR     43  41  93 CALM      30.00F
STEVENS POINT  CLEAR     36  35  94 CALM      30.02F
WAUPACA        CLEAR     42  41  95 CALM      30.02F
WAUTOMA        NOT AVBL
WISC RAPIDS    CLEAR     39  38  96 CALM      30.03S FOG
CAMP DOUGLAS   NOT AVBL
$$

WIZ011>013-019>022-031-037>040-048>050-171000-
NORTHEAST WISCONSIN

CITY           SKY/WX    TMP DP  RH WIND       PRES   REMARKS
ANTIGO         CLEAR     40  39  99 CALM      30.00F
STURGEON BAY   CLEAR     48  45  87 SW6       30.00F
GREEN BAY      CLEAR     44  43  96 CALM      30.01F
MANITOWOC      NOT AVBL
APPLETON       NOT AVBL
CLINTONVILLE   CLEAR     41  39  93 CALM      30.01F
OSHKOSH        CLEAR     43  41  93 S6        30.02F
$$

WIZ032>034-041-042-053>061-171000-
SOUTHWEST WISCONSIN

CITY           SKY/WX    TMP DP  RH WIND       PRES   REMARKS
LA CROSSE      CLOUDY    49  47  93 SE6       30.02S FOG
SPARTA         CLOUDY    36  36 100 CALM      30.03S FOG
VIROQUA        FAIR      49  44  83 S5        30.03S
BOSCOBEL       FOG       47  45  93 CALM      30.04F VSB 1/4
PRAIRIE DU CHI CLEAR     44  43  95 SE3       30.04S
PLATTEVILLE    FAIR      47  44  88 CALM      30.04F
$$

WIZ056-057-062-063-064-067-068-171000-
SOUTH CENTRAL WISCONSIN

CITY           SKY/WX    TMP DP  RH WIND       PRES   REMARKS
BARABOO/DELLS  CLEAR     44  41  92 CALM      30.03F
LONE ROCK      HAZE      45  39  81 CALM      30.04F VSB 3/4
WATERTOWN      CLEAR     39  39 100 CALM      30.04F
MADISON        FOG       40  39  97 CALM      30.04F VSB 3/4
MIDDLETON      FAIR      40  40 100 CALM      30.04F
MONROE         CLEAR     46  43  87 S8        30.04F
JANESVILLE     CLEAR     43  41  93 CALM      30.05F
$$

WIZ051-052-058>065-066-070>072-171000-
SOUTHEAST WISCONSIN

CITY           SKY/WX    TMP DP  RH WIND       PRES   REMARKS
MILWAUKEE      CLEAR     50  45  83 S3        30.04F
WAUKESHA       CLEAR     43  41  93 CALM      30.05F
MILWAUKEE/TIMM CLEAR     43  39  87 CALM      30.05F
RACINE         CLEAR     50  46  86 SW5       30.06F
BURLINGTON     FOG       36  36 100 CALM      30.05F VSB 1/4
KENOSHA        FOG       44  44 100 CALM      30.05F VSB 1
FOND DU LAC    CLEAR     44  40  85 SW3       30.03F
SHEBOYGAN      CLEAR     41  39  93 SW5       30.03F
WEST BEND      CLEAR     39  37  93 CALM      30.04F
JUNEAU         CLEAR     42  41  96 CALM      30.05F
$$

LSZ147-162-171000-
LAKE SUPERIOR

STATION/POSITION TIME  TEMP    WIND        PRES    WAVE
                       AIR SEA DIR/SP/G            HT/PER
                 (UTC) (F)     (DEG/KT/KT) (MB)    (FT/S)
W MID LAKE BUOY  0750   48 47  120/  6/  6 1013.2F   2/ 4
DEVILS ISLAND    0800   50      CALM  /  1 1013.9F
PORT WING        0800   53      20/  5/  6 1014.6
SAXON HARBOR     0800   54     190/  6/  9 1014.2
$$

LMZ867-665-643>646-171000-
LAKE MICHIGAN

STATION/POSITION TIME  TEMP    WIND        PRES    WAVE
                       AIR SEA DIR/SP/G            HT/PER
                 (UTC) (F)     (DEG/KT/KT) (MB)    (FT/S)
N MID LAKE BUOY  0750   57 58  270/ 10/ 14 1015.2F   2/ 5
NORTHPORT PIER   0800   55     280/  4/  9 1015.2F
KEWAUNEE LAKESHO 0800   48     300/  6/  7 1015.4F
SHEBOYGAN LAKESH 0800   50 51  250/  9/  9 1017.6F
PORT WASHINGTON  0800   49     270/  5/  7 1017.9
ATWATER BUOY     0800   56     230/  8/ 10 1018.5F
MILWAUKEE LAKESH 0800   54     240/  8/  9   N/A
S MID LAKE BUOY  0750   61 64  220/  6/  8 1018.0F   0
KENOSHA   LAKESH 0800   53     250/  8/  9 1017.9S
$$

TC  - TEMPERATURE IN CELSIUS
VSB - VISIBILITY IN STATUTE MILES
WCI - WIND CHILL INDEX
HX  - HEAT INDEX




USA.gov is the U.S. government's official web portal to all federal, state and local government web resources and services.